#timestamp,LO_Frequency,Hit,StdDev 
1621011615.7,286046999.5,N
1621011635.5,286046999.9,N
1621011655.3,286047002.8,N
1621011675.2,286047000.3,N
1621011695.0,286046999.8,N
1621011695.9,286046999.8,N
1621011715.7,286046999.8,N
1621011735.6,286046998.1,N
1621011755.4,286047001.0,N
1621011775.3,286046999.5,N
1621011795.1,286046997.2,N
1621011815.8,286046996.5,N
1621011835.7,286046998.2,N
1621011855.5,286047000.8,N
1621011875.4,286047001.9,N
1621011895.2,286047001.9,N
1621011915.0,286047002.4,N
1621011915.9,286047002.4,N
1621011935.8,286047001.4,N
1621011955.6,286047003.6,N
1621011975.5,286047002.7,N
1621011995.3,286046999.7,N
1621012015.1,286047004.1,N
1621012035.9,286047005.1,N
1621012055.7,286047004.2,N
1621012075.5,286047004.1,N
1621012095.4,286047003.7,N
1621012115.2,286047003.5,N
1621012135.1,286047000.1,N
1621012136.0,286047000.1,N
1621012155.8,286047000.5,N
1621012175.6,286047000.1,N
1621012195.5,286047001.1,N
1621012215.3,286047000.2,N
1621012235.1,286047001.9,N
1621012255.9,286047004.4,N
1621012275.7,286047001.8,N
1621012295.6,286047003.2,N
1621012315.4,286047004.0,N
1621012335.2,286047004.3,N
1621012355.1,286047004.2,N
1621012356.0,286047004.2,N
1621012375.8,286046999.9,N
1621012395.6,286047000.1,N
1621012415.5,286047001.2,N
1621012435.3,286047000.8,N
1621012455.2,286046998.6,N
1621012475.0,286047000.7,N
1621012475.9,286047000.7,N
1621012495.7,286046998.3,N
1621012515.6,286046999.1,N
1621012535.4,286046998.4,N
1621012555.3,286046996.7,N
1621012575.1,286046999.3,N
1621012576.0,286046999.3,N
1621012595.8,286046999.6,N
1621012615.7,286046997.2,N
1621012635.5,286047001.2,N
1621012655.4,286047000.4,N
1621012675.2,286046999.9,N
1621012695.0,286047000.8,N
1621012695.9,286047000.8,N
1621012715.8,286047001.1,N
1621012735.6,286047000.8,N
1621012755.4,286047001.0,N
1621012775.3,286046997.8,N
1621012795.1,286046999.2,N
1621012815.9,286046996.6,N
1621012835.7,286046996.5,N
1621012855.5,286047000.4,N
1621012875.4,286046998.5,N
1621012895.2,286046999.4,N
1621012915.0,286046996.6,N
1621012916.0,286046996.6,N
1621012935.8,286046998.7,N
1621012955.6,286047000.2,N
1621012975.5,286046998.7,N
1621012995.3,286046998.2,N
1621013015.1,286046998.1,N
1621013035.9,286046999.1,N
1621013055.7,286047000.2,N
1621013075.6,286047000.5,N
1621013095.4,286047002.3,N
1621013115.2,286047001.4,N
1621013135.1,286047004.3,N
1621013136.0,286047004.3,N
1621013155.8,286047002.5,N
1621013175.6,286047002.3,N
1621013195.5,286047003.5,N
1621013215.3,286046999.9,N
1621013235.2,286047002.4,N
1621013255.9,286047002.7,N
1621013275.7,286047001.0,N
1621013295.6,286046998.5,N
1621013315.4,286047001.2,N
1621013335.2,286046998.8,N
1621013355.1,286046999.1,N
1621013356.0,286046999.1,N
1621013375.8,286046996.6,N
1621013395.7,286046996.8,N
1621013415.5,286046997.9,N
1621013435.3,286046995.3,N
1621013455.2,286046995.5,N
1621013475.0,286046997.9,N
1621013475.9,286046997.9,N
1621013495.7,286046995.2,N
1621013515.6,286046995.8,N
1621013535.4,286046995.7,N
1621013555.3,286046996.3,N
1621013575.1,286046996.2,N
1621013576.0,286046996.2,N
1621013595.8,286046993.7,N
1621013615.7,286046996.4,N
1621013635.5,286046996.4,N
1621013655.3,286046993.4,N
1621013675.2,286046996.0,N
1621013695.0,286046996.2,N
1621013695.9,286046996.2,N
1621013715.8,286046995.5,N
1621013735.6,286046994.7,N
1621013755.4,286046994.1,N
1621013775.3,286046994.0,N
1621013795.1,286046993.8,Y
1621013815.9,286046995.6,P
1621013835.7,286046996.2,P
1621013855.5,286046996.0,P
1621013875.4,286046993.3,Y
1621013895.2,286046996.9,P
1621013915.0,286046994.9,P
1621013915.9,286046994.9,P
1621013935.8,286046993.4,Y
1621013955.6,286047001.0,P
1621013975.5,286047002.2,N
1621013995.3,286047001.9,N
1621014015.1,286047001.5,N
1621014035.9,286047002.0,N
1621014055.7,286047003.9,N
1621014075.5,286047001.3,N
1621014095.4,286047002.0,N
1621014115.2,286047001.3,N
1621014135.1,286047001.4,N
1621014136.0,286047001.4,N
1621014155.8,286047001.4,N
1621014175.6,286047001.6,N
1621014195.5,286047001.9,N
1621014215.3,286047004.3,N
1621014235.2,286047002.3,N
1621014255.9,286047001.7,N
1621014275.7,286047002.0,N
1621014295.6,286046999.8,N
1621014315.4,286047002.4,N
1621014335.2,286047000.5,N
1621014355.1,286046998.8,N
1621014356.0,286046998.8,N
1621014375.8,286046999.6,N
1621014395.7,286047001.0,N
1621014415.5,286046998.7,N
1621014435.3,286047000.9,N
1621014455.2,286047000.3,N
1621014475.0,286047000.0,N
1621014475.9,286047000.0,N
1621014495.7,286046999.7,N
1621014515.6,286046998.7,N
1621014535.4,286046999.0,N
1621014555.3,286046998.2,N
1621014575.1,286047001.1,N
1621014595.8,286047000.1,N
1621014615.7,286047001.4,N
1621014635.5,286047003.7,N
1621014655.4,286047003.8,N
1621014675.2,286047002.3,N
1621014695.0,286047004.2,N
1621014695.9,286047004.2,N
1621014715.8,286047005.9,Y
1621014735.6,286047005.8,P
1621014755.5,286047003.8,N
1621014775.3,286047002.3,N
1621014795.1,286047001.9,N
1621014815.9,286047003.6,N
1621014835.7,286047004.1,N
1621014855.5,286047005.3,Y
1621014875.4,286047002.8,P
1621014895.2,286047004.0,P
1621014915.1,286047003.3,P
1621014916.0,286047003.3,Y
1621014935.8,286046998.4,P
1621014955.6,286046998.9,N
1621014975.5,286046999.4,N
1621014995.3,286046996.5,N
1621015015.2,286046998.6,N
1621015035.9,286046996.5,N
1621015055.7,286046998.6,N
1621015075.6,286047001.0,N
1621015095.4,286046998.9,N
1621015115.2,286047000.8,N
1621015135.1,286046996.7,N
1621015136.0,286046996.7,N
1621015155.8,286046997.8,N
1621015175.7,286046997.7,N
1621015195.5,286046997.7,N
